K5WPH Weather Reports


Display with metric or nautical units.
time (UTC)temp
F
wind
direction
speed
MPH
gust
MPH
rain 1hr
in
rain 24hr
in
rain mn
in
humidity
%
barometer
mb
20260504231217 86 285 0.0 0.0 0.00 0.00 0.00 0
20260504230717 86 285 0.0 0.0 0.00 0.00 0.00 0
20260504230218 86 285 0.0 0.0 0.00 0.00 0.00 0
20260504225717 85 285 0.0 0.0 0.00 0.00 0.00 0
20260504225217 85 285 0.0 0.0 0.00 0.00 0.00 0
20260504224717 85 359 0.0 0.0 0.00 0.00 0.00 0
20260504224217 85 359 0.0 0.0 0.00 0.00 0.00 0
20260504223717 86 359 0.0 0.0 0.00 0.00 0.00 0
20260504223217 86 359 0.0 0.0 0.00 0.00 0.00 0
20260504222717 86 143 0.0 0.0 0.00 0.00 0.00 0
20260504222217 86 143 0.0 0.0 0.00 0.00 0.00 0
20260504221218 87 305 0.0 0.0 0.00 0.00 0.00 0
20260504220717 87 305 0.0 0.0 0.00 0.00 0.00 0
20260504220217 86 305 0.0 0.0 0.00 0.00 0.00 0
20260504215718 86 305 0.0 0.0 0.00 0.00 0.00 0
20260504215240 87 359 0.0 0.0 0.00 0.00 0.00 0
20260504215218 87 359 0.0 0.0 0.00 0.00 0.00 0
20260504214717 87 359 0.0 0.0 0.00 0.00 0.00 0
20260504213717 88 359 0.0 0.0 0.00 0.00 0.00 0
20260504213217 88 359 0.0 0.0 0.00 0.00 0.00 0
20260504212717 88 359 0.0 0.0 0.00 0.00 0.00 0
20260504212217 88 359 0.0 0.0 0.00 0.00 0.00 0
20260504211717 88 359 0.0 0.0 0.00 0.00 0.00 0
20260504211217 88 359 0.0 0.0 0.00 0.00 0.00 0
20260504210718 87 359 0.0 0.0 0.00 0.00 0.00 0
20260504210217 88 359 0.0 0.0 0.00 0.00 0.00 0
20260504205717 89 359 0.0 0.0 0.00 0.00 0.00 0
20260504205217 89 359 0.0 0.0 0.00 0.00 0.00 0
20260504204718 89 315 0.0 0.0 0.00 0.00 0.00 0
20260504204217 89 315 0.0 0.0 0.00 0.00 0.00 0
20260504203717 89 315 0.0 0.0 0.00 0.00 0.00 0
20260504203217 88 315 0.0 0.0 0.00 0.00 0.00 0
20260504202717 88 315 0.0 0.0 0.00 0.00 0.00 0
20260504202217 88 315 0.0 0.0 0.00 0.00 0.00 0
20260504201717 88 359 0.0 0.0 0.00 0.00 0.00 0
20260504201218 88 359 0.0 0.0 0.00 0.00 0.00 0
20260504200218 89 359 0.0 0.0 0.00 0.00 0.00 0
20260504195717 89 359 0.0 0.0 0.00 0.00 0.00 0
20260504195217 88 359 0.0 0.0 0.00 0.00 0.00 0
20260504194717 87 359 0.0 0.0 0.00 0.00 0.00 0
20260504194217 86 271 0.0 0.0 0.00 0.00 0.00 0
20260504193717 87 271 0.0 0.0 0.00 0.00 0.00 0
20260504193217 88 271 0.0 0.0 0.00 0.00 0.00 0
20260504192718 89 271 0.0 0.0 0.00 0.00 0.00 0
20260504192217 89 271 0.0 0.0 0.00 0.00 0.00 0
20260504191716 89 271 0.0 0.0 0.00 0.00 0.00 0
20260504190717 87 271 0.0 0.0 0.00 0.00 0.00 0
20260504190217 85 271 0.0 0.0 0.00 0.00 0.00 0
20260504185717 84 271 0.0 0.0 0.00 0.00 0.00 0
20260504183717 84 271 0.0 0.0 0.00 0.00 0.00 0
20260504183217 84 271 0.0 0.0 0.00 0.00 0.00 0
20260504182717 85 271 0.0 0.0 0.00 0.00 0.00 0
20260504182217 85 271 0.0 0.0 0.00 0.00 0.00 0
20260504181717 84 271 0.0 0.0 0.00 0.00 0.00 0
20260504181216 83 271 0.0 0.0 0.00 0.00 0.00 0
20260504180717 82 271 0.0 0.0 0.00 0.00 0.00 0
20260504180218 81 271 0.0 0.0 0.00 0.00 0.00 0
20260504175717 80 271 0.0 0.0 0.00 0.00 0.00 0
20260504175217 79 271 0.0 0.0 0.00 0.00 0.00 0
20260504174217 81 271 0.0 0.0 0.00 0.00 0.00 0
20260504173716 80 271 0.0 0.0 0.00 0.00 0.00 0
20260504173217 80 271 0.0 0.0 0.00 0.00 0.00 0
20260504172717 80 271 0.0 0.0 0.00 0.00 0.00 0
20260504172218 80 271 0.0 0.0 0.00 0.00 0.00 0
20260504171716 79 271 0.0 0.0 0.00 0.00 0.00 0
20260504170221 78 271 0.0 0.0 0.00 0.00 0.00 0
20260504170219 78 271 0.0 0.0 0.00 0.00 0.00 0
20260504160218 74 271 0.0 0.0 0.00 0.00 0.00 2
20260504150717 72 271 0.0 0.0 0.00 0.00 0.00 2
20260504150218 72 271 0.0 0.0 0.00 0.00 0.00 2
20260504141217 70 314 0.0 0.0 0.00 0.00 0.00 2
20260504140717 70 314 0.0 0.0 0.00 0.00 0.00 2
20260504140218 70 314 0.0 0.0 0.00 0.00 0.00 2
20260504130717 70 314 0.0 0.0 0.00 0.00 0.00 2
20260504120218 68 314 0.0 0.0 0.00 0.00 0.00 3
20260504110716 70 314 0.0 0.0 0.00 0.00 0.00 3
20260504110217 70 314 0.0 0.0 0.00 0.00 0.00 3
20260504100217 71 314 0.0 0.0 0.00 0.00 0.00 2
20260504081716 70 359 0.0 0.0 0.00 0.00 0.00 4
20260504081216 69 359 0.0 0.0 0.00 0.00 0.00 5
20260504080716 69 359 0.0 0.0 0.00 0.00 0.00 5
20260504080219 68 359 0.0 0.0 0.00 0.00 0.00 7
20260504070217 67 359 0.0 0.0 0.00 0.00 0.00 9
20260504060216 68 359 0.0 0.0 0.00 0.00 0.00 8
20260504050716 69 359 0.0 0.0 0.00 0.00 0.00 7
20260504050216 69 359 0.0 0.0 0.00 0.00 0.00 7
20260504045716 70 359 0.0 0.0 0.00 0.00 0.00 7
20260504044715 70 359 0.0 0.0 0.00 0.00 0.00 7
20260504044216 70 359 0.0 0.0 0.00 0.00 0.00 7
20260504043715 70 359 0.0 0.0 0.00 0.00 0.00 7
20260504043216 70 359 0.0 0.0 0.00 0.00 0.00 6
20260504042716 70 359 0.0 0.0 0.00 0.00 0.00 6
20260504042216 71 359 0.0 0.0 0.00 0.00 0.00 6
20260504041716 71 359 0.0 0.0 0.00 0.00 0.00 6
20260504041216 71 359 0.0 0.0 0.00 0.00 0.00 6
20260504040716 71 359 0.0 0.0 0.00 0.00 0.00 6
20260504040216 71 359 0.0 0.0 0.00 0.00 0.00 5
20260504035716 72 359 0.0 0.0 0.00 0.00 0.00 5
20260504035217 72 359 0.0 0.0 0.00 0.00 0.00 4
20260504034715 72 359 0.0 0.0 0.00 0.00 0.00 3
20260504034216 72 359 0.0 0.0 0.00 0.00 0.00 3
20260504033715 73 359 0.0 0.0 0.00 0.00 0.00 3
20260504033216 73 359 0.0 0.0 0.00 0.00 0.00 3
20260504032716 74 359 0.0 0.0 0.00 0.00 0.00 3
20260504031716 74 359 0.0 0.0 0.00 0.00 0.00 2
20260504031216 74 359 0.0 0.0 0.00 0.00 0.00 2
20260504030716 74 359 0.0 0.0 0.00 0.00 0.00 2
20260504030217 75 359 0.0 0.0 0.00 0.00 0.00 2
20260504025716 75 359 0.0 0.0 0.00 0.00 0.00 2
20260504025215 75 359 0.0 0.0 0.00 0.00 0.00 2
20260504024716 75 359 0.0 0.0 0.00 0.00 0.00 2
20260504024216 75 359 0.0 0.0 0.00 0.00 0.00 2
20260504023716 75 359 0.0 0.0 0.00 0.00 0.00 2
20260504023215 75 359 0.0 0.0 0.00 0.00 0.00 2
20260504022716 75 359 0.0 0.0 0.00 0.00 0.00 2
20260504022216 76 359 0.0 0.0 0.00 0.00 0.00 2
20260504021716 76 359 0.0 0.0 0.00 0.00 0.00 1
20260504021215 76 359 0.0 0.0 0.00 0.00 0.00 1
20260504020715 76 359 0.0 0.0 0.00 0.00 0.00 1
20260504020216 76 359 0.0 0.0 0.00 0.00 0.00 1
20260504015715 76 359 0.0 0.0 0.00 0.00 0.00 1
20260504015215 77 359 0.0 0.0 0.00 0.00 0.00 1
20260504014716 77 359 0.0 0.0 0.00 0.00 0.00 1
20260504014215 77 359 0.0 0.0 0.00 0.00 0.00 1
20260504013715 77 359 0.0 0.0 0.00 0.00 0.00 0
20260504013216 78 359 0.0 0.0 0.00 0.00 0.00 0
20260504012715 78 359 0.0 0.0 0.00 0.00 0.00 0
20260504012216 78 359 0.0 0.0 0.00 0.00 0.00 0
20260504011716 79 359 0.0 0.0 0.00 0.00 0.00 0
20260504011215 79 359 0.0 0.0 0.00 0.00 0.00 0
20260504010715 79 359 0.0 0.0 0.00 0.00 0.00 0
20260504010216 80 359 0.0 0.0 0.00 0.00 0.00 0
20260504005715 80 359 0.0 0.0 0.00 0.00 0.00 1
20260504005216 80 359 0.0 0.0 0.00 0.00 0.00 2
20260504004716 81 359 0.0 0.0 0.00 0.00 0.00 2
20260504004215 81 359 0.0 0.0 0.00 0.00 0.00 2
20260504003716 81 359 0.0 0.0 0.00 0.00 0.00 2
20260504003215 81 359 0.0 0.0 0.00 0.00 0.00 2
20260504001320 82 359 0.0 0.0 0.00 0.00 0.00 2
20260504001215 81 359 0.0 0.0 0.00 0.00 0.00 2
20260504000715 82 359 0.0 0.0 0.00 0.00 0.00 2
20260503235715 82 359 0.0 0.0 0.00 0.00 0.00 2
20260503235217 82 359 0.0 0.0 0.00 0.00 0.00 1
20260503234715 83 359 0.0 0.0 0.00 0.00 0.00 1
20260503233715 83 359 0.0 0.0 0.00 0.00 0.00 1
20260503233216 84 359 0.0 0.0 0.00 0.00 0.00 1
20260503232716 84 359 0.0 0.0 0.00 0.00 0.00 1
20260503232216 85 359 0.0 0.0 0.00 0.00 0.00 1